| time (UTC) | temp F | wind direction | speed MPH | gust MPH | rain 1hr in | rain 24hr in | rain mn in | humidity % | barometer mb |
| 20260510221220 | 58 | 341 | 2.0 | 2.0 | 0.00 | 0.00 | 0.00 | 36 | 1022.8 |
| 20260510220717 | 58 | 234 | 3.0 | 3.0 | 0.00 | 0.00 | 0.00 | 36 | 1022.8 |
| 20260510220212 | 58 | 247 | 7.0 | 10.0 | 0.00 | 0.00 | 0.00 | 36 | 1022.8 |
| 20260510215709 | 58 | 280 | 2.0 | 2.0 | 0.00 | 0.00 | 0.00 | 37 | 1022.9 |
| 20260510215208 | 59 | 332 | 1.0 | 1.0 | 0.00 | 0.00 | 0.00 | 37 | 1022.9 |
| 20260510214704 | 59 | 352 | 3.0 | 5.0 | 0.00 | 0.00 | 0.00 | 36 | 1022.6 |
| 20260510214201 | 59 | 331 | 1.0 | 2.0 | 0.00 | 0.00 | 0.00 | 36 | 1022.6 |
| 20260510213658 | 59 | 287 | 4.0 | 6.0 | 0.00 | 0.00 | 0.00 | 36 | 1022.8 |
| 20260510213154 | 59 | 300 | 4.0 | 6.0 | 0.00 | 0.00 | 0.00 | 36 | 1022.6 |
| 20260510212650 | 59 | 253 | 3.0 | 5.0 | 0.00 | 0.00 | 0.00 | 36 | 1022.7 |
| 20260510212148 | 58 | 8 | 2.0 | 2.0 | 0.00 | 0.00 | 0.00 | 37 | 1022.7 |
| 20260510211645 | 60 | 295 | 4.0 | 5.0 | 0.00 | 0.00 | 0.00 | 35 | 1022.7 |
| 20260510211145 | 60 | 272 | 2.0 | 3.0 | 0.00 | 0.00 | 0.00 | 36 | 1022.7 |
| 20260510210642 | 59 | 31 | 1.0 | 1.0 | 0.00 | 0.00 | 0.00 | 38 | 1022.4 |
| 20260510210137 | 59 | 282 | 5.0 | 6.0 | 0.00 | 0.00 | 0.00 | 37 | 1022.7 |
| 20260510205636 | 58 | 325 | 1.0 | 1.0 | 0.00 | 0.00 | 0.00 | 37 | 1022.5 |
| 20260510205132 | 59 | 333 | 2.0 | 2.0 | 0.00 | 0.00 | 0.00 | 36 | 1022.6 |
| 20260510204628 | 59 | 255 | 2.0 | 2.0 | 0.00 | 0.00 | 0.00 | 37 | 1022.5 |
| 20260510204125 | 60 | 317 | 3.0 | 3.0 | 0.00 | 0.00 | 0.00 | 36 | 1022.5 |
| 20260510203622 | 59 | 271 | 4.0 | 6.0 | 0.00 | 0.00 | 0.00 | 36 | 1022.4 |
| 20260510203119 | 59 | 277 | 5.0 | 6.0 | 0.00 | 0.00 | 0.00 | 36 | 1022.4 |
| 20260510202619 | 59 | 298 | 5.0 | 8.0 | 0.00 | 0.00 | 0.00 | 35 | 1022.6 |
| 20260510202114 | 60 | 262 | 3.0 | 3.0 | 0.00 | 0.00 | 0.00 | 36 | 1022.5 |
| 20260510201612 | 59 | 331 | 3.0 | 5.0 | 0.00 | 0.00 | 0.00 | 36 | 1022.6 |
| 20260510201109 | 58 | 238 | 4.0 | 6.0 | 0.00 | 0.00 | 0.00 | 36 | 1022.8 |
| 20260510200605 | 58 | 309 | 3.0 | 5.0 | 0.00 | 0.00 | 0.00 | 36 | 1022.6 |
| 20260510195600 | 58 | 287 | 3.0 | 3.0 | 0.00 | 0.00 | 0.00 | 36 | 1022.7 |
| 20260510195056 | 59 | 267 | 3.0 | 3.0 | 0.00 | 0.00 | 0.00 | 36 | 1022.9 |
| 20260510194551 | 59 | 288 | 5.0 | 7.0 | 0.00 | 0.00 | 0.00 | 34 | 1023.0 |
| 20260510194047 | 58 | 300 | 3.0 | 5.0 | 0.00 | 0.00 | 0.00 | 36 | 1023.1 |
| 20260510193542 | 59 | 242 | 3.0 | 5.0 | 0.00 | 0.00 | 0.00 | 35 | 1022.9 |
| 20260510193038 | 58 | 236 | 3.0 | 5.0 | 0.00 | 0.00 | 0.00 | 34 | 1022.9 |
| 20260510192537 | 58 | 270 | 3.0 | 3.0 | 0.00 | 0.00 | 0.00 | 35 | 1023.0 |
| 20260510192034 | 58 | 326 | 3.0 | 3.0 | 0.00 | 0.00 | 0.00 | 36 | 1022.8 |
| 20260510191530 | 58 | 278 | 5.0 | 8.0 | 0.00 | 0.00 | 0.00 | 35 | 1023.0 |
| 20260510191027 | 59 | 259 | 3.0 | 3.0 | 0.00 | 0.00 | 0.00 | 35 | 1022.9 |
| 20260510190525 | 59 | 261 | 3.0 | 5.0 | 0.00 | 0.00 | 0.00 | 35 | 1022.9 |
| 20260510190022 | 59 | 281 | 3.0 | 3.0 | 0.00 | 0.00 | 0.00 | 35 | 1022.8 |
| 20260510185519 | 58 | 225 | 3.0 | 5.0 | 0.00 | 0.00 | 0.00 | 36 | 1022.9 |
| 20260510185016 | 57 | 295 | 3.0 | 5.0 | 0.00 | 0.00 | 0.00 | 36 | 1022.8 |
| 20260510184513 | 57 | 215 | 3.0 | 5.0 | 0.00 | 0.00 | 0.00 | 37 | 1023.1 |
| 20260510184009 | 57 | 286 | 3.0 | 3.0 | 0.00 | 0.00 | 0.00 | 37 | 1023.1 |
| 20260510183504 | 58 | 324 | 2.0 | 3.0 | 0.00 | 0.00 | 0.00 | 36 | 1022.9 |
| 20260510182959 | 58 | 329 | 3.0 | 5.0 | 0.00 | 0.00 | 0.00 | 36 | 1022.9 |
| 20260510182456 | 58 | 305 | 3.0 | 3.0 | 0.00 | 0.00 | 0.00 | 36 | 1022.9 |
| 20260510181951 | 57 | 308 | 3.0 | 6.0 | 0.00 | 0.00 | 0.00 | 36 | 1022.8 |
| 20260510181450 | 57 | 280 | 3.0 | 3.0 | 0.00 | 0.00 | 0.00 | 38 | 1022.8 |
| 20260510180945 | 57 | 280 | 5.0 | 6.0 | 0.00 | 0.00 | 0.00 | 37 | 1022.7 |
| 20260510180443 | 58 | 286 | 3.0 | 3.0 | 0.00 | 0.00 | 0.00 | 36 | 1022.5 |
| 20260510175940 | 58 | 282 | 5.0 | 6.0 | 0.00 | 0.00 | 0.00 | 37 | 1022.7 |
| 20260510175436 | 57 | 336 | 1.0 | 2.0 | 0.00 | 0.00 | 0.00 | 38 | 1022.5 |
| 20260510174931 | 57 | 295 | 2.0 | 2.0 | 0.00 | 0.00 | 0.00 | 38 | 1022.4 |
| 20260510174430 | 58 | 259 | 6.0 | 9.0 | 0.00 | 0.00 | 0.00 | 37 | 1022.3 |
| 20260510173926 | 57 | 11 | 2.0 | 2.0 | 0.00 | 0.00 | 0.00 | 37 | 1022.3 |
| 20260510173422 | 58 | 246 | 3.0 | 3.0 | 0.00 | 0.00 | 0.00 | 38 | 1022.6 |
| 20260510172918 | 57 | 319 | 2.0 | 2.0 | 0.00 | 0.00 | 0.00 | 38 | 1022.3 |
| 20260510172414 | 57 | 251 | 2.0 | 2.0 | 0.00 | 0.00 | 0.00 | 39 | 1022.6 |
| 20260510171910 | 57 | 316 | 3.0 | 3.0 | 0.00 | 0.00 | 0.00 | 38 | 1022.6 |
| 20260510171408 | 57 | 254 | 3.0 | 3.0 | 0.00 | 0.00 | 0.00 | 37 | 1022.5 |
| 20260510170904 | 58 | 307 | 5.0 | 7.0 | 0.00 | 0.00 | 0.00 | 37 | 1022.5 |
| 20260510170401 | 57 | 203 | 4.0 | 5.0 | 0.00 | 0.00 | 0.00 | 38 | 1022.4 |
| 20260510165856 | 57 | 226 | 3.0 | 5.0 | 0.00 | 0.00 | 0.00 | 37 | 1022.5 |
| 20260510165353 | 58 | 291 | 3.0 | 3.0 | 0.00 | 0.00 | 0.00 | 37 | 1022.3 |
| 20260510164850 | 57 | 38 | 0.0 | 1.0 | 0.00 | 0.00 | 0.00 | 37 | 1022.3 |
| 20260510164347 | 57 | 269 | 3.0 | 3.0 | 0.00 | 0.00 | 0.00 | 36 | 1022.2 |
| 20260510163847 | 57 | 229 | 2.0 | 3.0 | 0.00 | 0.00 | 0.00 | 37 | 1022.4 |
| 20260510163343 | 57 | 3 | 1.0 | 2.0 | 0.00 | 0.00 | 0.00 | 39 | 1022.3 |
| 20260510162838 | 56 | 294 | 3.0 | 3.0 | 0.00 | 0.00 | 0.00 | 38 | 1022.3 |
| 20260510162336 | 56 | 310 | 2.0 | 2.0 | 0.00 | 0.00 | 0.00 | 39 | 1022.3 |
| 20260510161831 | 56 | 303 | 3.0 | 3.0 | 0.00 | 0.00 | 0.00 | 39 | 1022.3 |
| 20260510161327 | 54 | 222 | 6.0 | 8.0 | 0.00 | 0.00 | 0.00 | 41 | 1022.1 |
| 20260510160824 | 56 | 0 | 1.0 | 1.0 | 0.00 | 0.00 | 0.00 | 40 | 1022.1 |
| 20260510160321 | 57 | 244 | 3.0 | 3.0 | 0.00 | 0.00 | 0.00 | 39 | 1022.4 |
| 20260510155815 | 56 | 331 | 1.0 | 1.0 | 0.00 | 0.00 | 0.00 | 40 | 1022.2 |
| 20260510155312 | 56 | 319 | 2.0 | 2.0 | 0.00 | 0.00 | 0.00 | 40 | 1022.2 |
| 20260510154807 | 57 | 85 | 2.0 | 3.0 | 0.00 | 0.00 | 0.00 | 38 | 1022.3 |
| 20260510154304 | 56 | 350 | 2.0 | 2.0 | 0.00 | 0.00 | 0.00 | 40 | 1022.2 |
| 20260510153758 | 57 | 33 | 1.0 | 1.0 | 0.00 | 0.00 | 0.00 | 40 | 1022.3 |
| 20260510153254 | 55 | 355 | 1.0 | 1.0 | 0.00 | 0.00 | 0.00 | 40 | 1022.2 |
| 20260510152751 | 56 | 222 | 5.0 | 7.0 | 0.00 | 0.00 | 0.00 | 39 | 1022.2 |
| 20260510152248 | 54 | 17 | 1.0 | 1.0 | 0.00 | 0.00 | 0.00 | 40 | 1022.0 |
| 20260510151744 | 53 | 10 | 2.0 | 2.0 | 0.00 | 0.00 | 0.00 | 41 | 1022.1 |
| 20260510151243 | 54 | 215 | 5.0 | 5.0 | 0.00 | 0.00 | 0.00 | 38 | 1022.1 |
| 20260510150738 | 53 | 271 | 3.0 | 3.0 | 0.00 | 0.00 | 0.00 | 41 | 1022.0 |
| 20260510150234 | 54 | 318 | 0.0 | 1.0 | 0.00 | 0.00 | 0.00 | 40 | 1022.1 |
| 20260510145730 | 54 | 21 | 1.0 | 1.0 | 0.00 | 0.00 | 0.00 | 39 | 1022.0 |
| 20260510145227 | 54 | 215 | 3.0 | 3.0 | 0.00 | 0.00 | 0.00 | 39 | 1022.1 |
| 20260510144723 | 53 | 51 | 1.0 | 2.0 | 0.00 | 0.00 | 0.00 | 40 | 1022.0 |
| 20260510144220 | 52 | 331 | 2.0 | 2.0 | 0.00 | 0.00 | 0.00 | 41 | 1022.0 |
| 20260510143714 | 52 | 239 | 4.0 | 5.0 | 0.00 | 0.00 | 0.00 | 40 | 1021.8 |
| 20260510143212 | 53 | 230 | 5.0 | 8.0 | 0.00 | 0.00 | 0.00 | 40 | 1021.8 |
| 20260510142708 | 54 | 328 | 2.0 | 2.0 | 0.00 | 0.00 | 0.00 | 40 | 1021.8 |
| 20260510142205 | 54 | 61 | 2.0 | 2.0 | 0.00 | 0.00 | 0.00 | 39 | 1021.8 |
| 20260510141701 | 54 | 340 | 1.0 | 2.0 | 0.00 | 0.00 | 0.00 | 41 | 1021.7 |
| 20260510141200 | 52 | 80 | 0.0 | 1.0 | 0.00 | 0.00 | 0.00 | 41 | 1021.7 |
| 20260510140656 | 51 | 354 | 1.0 | 2.0 | 0.00 | 0.00 | 0.00 | 43 | 1021.6 |
| 20260510140155 | 53 | 350 | 2.0 | 2.0 | 0.00 | 0.00 | 0.00 | 42 | 1021.8 |
| 20260510135650 | 52 | 37 | 1.0 | 1.0 | 0.00 | 0.00 | 0.00 | 42 | 1021.8 |
| 20260510135147 | 52 | 44 | 0.0 | 0.0 | 0.00 | 0.00 | 0.00 | 43 | 1021.5 |
| 20260510134644 | 52 | 341 | 1.0 | 1.0 | 0.00 | 0.00 | 0.00 | 44 | 1021.8 |
| 20260510134141 | 51 | 215 | 2.0 | 2.0 | 0.00 | 0.00 | 0.00 | 44 | 1021.6 |
| 20260510133638 | 51 | 42 | 1.0 | 1.0 | 0.00 | 0.00 | 0.00 | 46 | 1021.7 |
| 20260510133133 | 50 | 249 | 1.0 | 2.0 | 0.00 | 0.00 | 0.00 | 46 | 1021.6 |
| 20260510132630 | 50 | 42 | 0.0 | 0.0 | 0.00 | 0.00 | 0.00 | 46 | 1021.6 |
| 20260510132127 | 50 | 315 | 1.0 | 1.0 | 0.00 | 0.00 | 0.00 | 48 | 1021.4 |
| 20260510131624 | 49 | 12 | 1.0 | 1.0 | 0.00 | 0.00 | 0.00 | 50 | 1021.6 |
| 20260510131122 | 49 | 8 | 1.0 | 1.0 | 0.00 | 0.00 | 0.00 | 53 | 1021.5 |
| 20260510130618 | 49 | 277 | 2.0 | 2.0 | 0.00 | 0.00 | 0.00 | 54 | 1021.6 |
| 20260510130116 | 48 | 3 | 1.0 | 2.0 | 0.00 | 0.00 | 0.00 | 59 | 1021.4 |
| 20260510125612 | 48 | 1 | 1.0 | 1.0 | 0.00 | 0.00 | 0.00 | 61 | 1021.4 |
| 20260510125108 | 48 | 30 | 0.0 | 1.0 | 0.00 | 0.00 | 0.00 | 59 | 1021.3 |
| 20260510124604 | 48 | 7 | 1.0 | 1.0 | 0.00 | 0.00 | 0.00 | 63 | 1021.2 |
| 20260510124102 | 46 | 25 | 0.0 | 0.0 | 0.00 | 0.00 | 0.00 | 66 | 1021.2 |
| 20260510123556 | 46 | 224 | 1.0 | 2.0 | 0.00 | 0.00 | 0.00 | 66 | 1021.1 |
| 20260510123053 | 45 | 27 | 0.0 | 1.0 | 0.00 | 0.00 | 0.00 | 68 | 1020.9 |
| 20260510122549 | 45 | 357 | 1.0 | 1.0 | 0.00 | 0.00 | 0.00 | 69 | 1020.9 |
| 20260510122045 | 44 | 26 | 1.0 | 1.0 | 0.00 | 0.00 | 0.00 | 69 | 1020.9 |
| 20260510121543 | 44 | 162 | 1.0 | 1.0 | 0.00 | 0.00 | 0.00 | 69 | 1021.0 |
| 20260510121040 | 43 | 50 | 1.0 | 1.0 | 0.00 | 0.00 | 0.00 | 71 | 1020.8 |
| 20260510120537 | 43 | 25 | 0.0 | 1.0 | 0.00 | 0.00 | 0.00 | 72 | 1020.9 |
| 20260510120033 | 43 | 50 | 1.0 | 1.0 | 0.00 | 0.00 | 0.00 | 74 | 1020.8 |
| 20260510115530 | 43 | 30 | 0.0 | 1.0 | 0.00 | 0.00 | 0.00 | 75 | 1020.7 |
| 20260510115027 | 43 | 23 | 0.0 | 1.0 | 0.00 | 0.00 | 0.00 | 73 | 1020.6 |
| 20260510114522 | 43 | 39 | 0.0 | 0.0 | 0.00 | 0.00 | 0.00 | 75 | 1020.4 |
| 20260510114018 | 43 | 40 | 0.0 | 0.0 | 0.00 | 0.00 | 0.00 | 73 | 1020.3 |
| 20260510113508 | 42 | 48 | 0.0 | 0.0 | 0.00 | 0.00 | 0.00 | 77 | 1020.4 |
| 20260510113006 | 40 | 47 | 0.0 | 0.0 | 0.00 | 0.00 | 0.00 | 78 | 1020.1 |
| 20260510112503 | 39 | 36 | 0.0 | 0.0 | 0.00 | 0.00 | 0.00 | 79 | 1020.1 |
| 20260510111959 | 40 | 40 | 0.0 | 0.0 | 0.00 | 0.00 | 0.00 | 78 | 1020.0 |
| 20260510111455 | 39 | 43 | 0.0 | 0.0 | 0.00 | 0.00 | 0.00 | 83 | 1020.0 |
| 20260510110951 | 37 | 43 | 0.0 | 0.0 | 0.00 | 0.00 | 0.00 | 84 | 1020.3 |
| 20260510110448 | 36 | 45 | 0.0 | 0.0 | 0.00 | 0.00 | 0.00 | 88 | 1019.9 |
| 20260510105944 | 34 | 36 | 0.0 | 0.0 | 0.00 | 0.00 | 0.00 | 90 | 1020.3 |
| 20260510105439 | 33 | 34 | 0.0 | 0.0 | 0.00 | 0.00 | 0.00 | 91 | 1019.8 |
| 20260510104935 | 33 | 37 | 0.0 | 0.0 | 0.00 | 0.00 | 0.00 | 91 | 1019.7 |
| 20260510104431 | 33 | 36 | 0.0 | 0.0 | 0.00 | 0.00 | 0.00 | 90 | 1019.8 |
| 20260510103927 | 33 | 36 | 0.0 | 0.0 | 0.00 | 0.00 | 0.00 | 90 | 1019.6 |
| 20260510103425 | 33 | 36 | 0.0 | 0.0 | 0.00 | 0.00 | 0.00 | 90 | 1019.5 |
| 20260510102920 | 33 | 35 | 0.0 | 0.0 | 0.00 | 0.00 | 0.00 | 90 | 1019.4 |
| 20260510102416 | 33 | 11 | 1.0 | 1.0 | 0.00 | 0.00 | 0.00 | 90 | 1019.1 |
| 20260510101913 | 33 | 37 | 0.0 | 0.0 | 0.00 | 0.00 | 0.00 | 90 | 1019.1 |
| 20260510101411 | 33 | 38 | 0.0 | 0.0 | 0.00 | 0.00 | 0.00 | 90 | 1019.1 |
| 20260510100908 | 33 | 38 | 0.0 | 0.0 | 0.00 | 0.00 | 0.00 | 89 | 1019.0 |
| 20260510100400 | 33 | 38 | 0.0 | 0.0 | 0.00 | 0.00 | 0.00 | 89 | 1019.0 |
| 20260510095855 | 33 | 38 | 0.0 | 0.0 | 0.00 | 0.00 | 0.00 | 89 | 1019.0 |
| 20260510095345 | 33 | 38 | 0.0 | 0.0 | 0.00 | 0.00 | 0.00 | 89 | 1018.9 |
| 20260510094844 | 33 | 38 | 0.0 | 0.0 | 0.00 | 0.00 | 0.00 | 88 | 1018.8 |
| 20260510094339 | 33 | 38 | 0.0 | 0.0 | 0.00 | 0.00 | 0.00 | 88 | 1018.4 |
| 20260510093837 | 33 | 38 | 0.0 | 0.0 | 0.00 | 0.00 | 0.00 | 87 | 1018.7 |
| 20260510093332 | 33 | 38 | 0.0 | 0.0 | 0.00 | 0.00 | 0.00 | 87 | 1018.6 |
| 20260510092829 | 33 | 38 | 0.0 | 0.0 | 0.00 | 0.00 | 0.00 | 86 | 1018.5 |
| 20260510092324 | 33 | 38 | 0.0 | 0.0 | 0.00 | 0.00 | 0.00 | 86 | 1018.5 |
| 20260510091820 | 34 | 38 | 0.0 | 0.0 | 0.00 | 0.00 | 0.00 | 85 | 1018.5 |
| 20260510091318 | 34 | 38 | 0.0 | 0.0 | 0.00 | 0.00 | 0.00 | 85 | 1018.5 |
| 20260510090814 | 34 | 38 | 0.0 | 0.0 | 0.00 | 0.00 | 0.00 | 84 | 1018.4 |
| 20260510090311 | 35 | 38 | 0.0 | 0.0 | 0.00 | 0.00 | 0.00 | 83 | 1018.5 |
| 20260510085806 | 35 | 38 | 0.0 | 0.0 | 0.00 | 0.00 | 0.00 | 83 | 1018.2 |
| 20260510085301 | 35 | 38 | 0.0 | 0.0 | 0.00 | 0.00 | 0.00 | 83 | 1018.3 |
| 20260510084757 | 35 | 38 | 0.0 | 0.0 | 0.00 | 0.00 | 0.00 | 83 | 1018.2 |
| 20260510084254 | 35 | 39 | 0.0 | 0.0 | 0.00 | 0.00 | 0.00 | 82 | 1018.1 |
| 20260510083751 | 36 | 39 | 0.0 | 0.0 | 0.00 | 0.00 | 0.00 | 82 | 1018.0 |
| 20260510083248 | 36 | 38 | 0.0 | 0.0 | 0.00 | 0.00 | 0.00 | 80 | 1018.0 |
| 20260510082744 | 36 | 37 | 0.0 | 0.0 | 0.00 | 0.00 | 0.00 | 80 | 1017.9 |
| 20260510082240 | 36 | 37 | 0.0 | 0.0 | 0.00 | 0.00 | 0.00 | 78 | 1017.7 |
| 20260510081739 | 37 | 37 | 0.0 | 0.0 | 0.00 | 0.00 | 0.00 | 78 | 1017.6 |
| 20260510081236 | 37 | 37 | 0.0 | 0.0 | 0.00 | 0.00 | 0.00 | 77 | 1017.7 |
| 20260510080731 | 38 | 37 | 0.0 | 0.0 | 0.00 | 0.00 | 0.00 | 76 | 1017.6 |
| 20260510080227 | 38 | 37 | 0.0 | 0.0 | 0.00 | 0.00 | 0.00 | 76 | 1017.6 |
| 20260510075724 | 39 | 37 | 0.0 | 0.0 | 0.00 | 0.00 | 0.00 | 75 | 1017.3 |
| 20260510075221 | 39 | 37 | 0.0 | 0.0 | 0.00 | 0.00 | 0.00 | 73 | 1017.1 |
| 20260510074718 | 40 | 36 | 0.0 | 0.0 | 0.00 | 0.00 | 0.00 | 72 | 1017.1 |
| 20260510074214 | 41 | 35 | 0.0 | 0.0 | 0.00 | 0.00 | 0.00 | 69 | 1017.0 |
| 20260510073711 | 41 | 34 | 0.0 | 0.0 | 0.00 | 0.00 | 0.00 | 66 | 1017.0 |
| 20260510073206 | 42 | 33 | 0.0 | 1.0 | 0.00 | 0.00 | 0.00 | 65 | 1017.0 |
| 20260510072703 | 42 | 37 | 1.0 | 1.0 | 0.00 | 0.00 | 0.00 | 65 | 1017.0 |
| 20260510072159 | 42 | 48 | 1.0 | 1.0 | 0.00 | 0.00 | 0.00 | 65 | 1016.8 |
| 20260510071656 | 42 | 33 | 0.0 | 0.0 | 0.00 | 0.00 | 0.00 | 64 | 1016.9 |
| 20260510071153 | 42 | 28 | 1.0 | 1.0 | 0.00 | 0.00 | 0.00 | 64 | 1016.8 |
| 20260510070650 | 43 | 29 | 1.0 | 1.0 | 0.00 | 0.00 | 0.00 | 63 | 1016.9 |
| 20260510070148 | 43 | 38 | 1.0 | 1.0 | 0.00 | 0.00 | 0.00 | 63 | 1016.9 |
| 20260510065643 | 42 | 30 | 0.0 | 1.0 | 0.00 | 0.00 | 0.00 | 64 | 1016.8 |
| 20260510065140 | 42 | 34 | 0.0 | 0.0 | 0.00 | 0.00 | 0.00 | 64 | 1016.7 |
| 20260510064636 | 42 | 39 | 0.0 | 0.0 | 0.00 | 0.00 | 0.00 | 64 | 1016.8 |
| 20260510064133 | 43 | 42 | 0.0 | 0.0 | 0.00 | 0.00 | 0.00 | 63 | 1016.8 |
| 20260510063630 | 43 | 44 | 0.0 | 0.0 | 0.00 | 0.00 | 0.00 | 62 | 1016.8 |
| 20260510063127 | 44 | 50 | 1.0 | 2.0 | 0.00 | 0.00 | 0.00 | 62 | 1016.7 |
| 20260510062623 | 44 | 20 | 1.0 | 2.0 | 0.00 | 0.00 | 0.00 | 61 | 1016.6 |
| 20260510062119 | 44 | 37 | 1.0 | 1.0 | 0.00 | 0.00 | 0.00 | 61 | 1016.6 |
| 20260510061615 | 44 | 36 | 1.0 | 1.0 | 0.00 | 0.00 | 0.00 | 61 | 1016.5 |
| 20260510061112 | 44 | 18 | 3.0 | 3.0 | 0.00 | 0.00 | 0.00 | 61 | 1016.5 |
| 20260510060608 | 44 | 322 | 2.0 | 2.0 | 0.00 | 0.00 | 0.00 | 61 | 1016.7 |
| 20260510060104 | 45 | 15 | 1.0 | 1.0 | 0.00 | 0.00 | 0.00 | 61 | 1016.7 |
| 20260510055559 | 45 | 46 | 2.0 | 2.0 | 0.00 | 0.00 | 0.00 | 61 | 1016.4 |
| 20260510055059 | 45 | 24 | 1.0 | 1.0 | 0.00 | 0.00 | 0.00 | 61 | 1016.3 |
| 20260510054549 | 45 | 3 | 2.0 | 2.0 | 0.00 | 0.00 | 0.00 | 61 | 1016.5 |
| 20260510054043 | 45 | 327 | 1.0 | 1.0 | 0.00 | 0.00 | 0.00 | 61 | 1016.3 |
| 20260510053538 | 46 | 14 | 3.0 | 3.0 | 0.00 | 0.00 | 0.00 | 60 | 1016.3 |
| 20260510053035 | 46 | 21 | 1.0 | 2.0 | 0.00 | 0.00 | 0.00 | 58 | 1016.2 |
| 20260510052531 | 47 | 40 | 3.0 | 3.0 | 0.00 | 0.00 | 0.00 | 57 | 1016.0 |
| 20260510052028 | 47 | 8 | 2.0 | 2.0 | 0.00 | 0.00 | 0.00 | 56 | 1015.8 |
| 20260510051523 | 47 | 32 | 3.0 | 6.0 | 0.00 | 0.00 | 0.00 | 57 | 1015.8 |
| 20260510051020 | 47 | 29 | 3.0 | 3.0 | 0.00 | 0.00 | 0.00 | 58 | 1015.5 |
| 20260510050518 | 47 | 16 | 1.0 | 2.0 | 0.00 | 0.00 | 0.00 | 60 | 1015.3 |
| 20260510050014 | 47 | 6 | 2.0 | 2.0 | 0.00 | 0.00 | 0.00 | 60 | 1015.3 |
| 20260510045512 | 47 | 27 | 1.0 | 2.0 | 0.00 | 0.00 | 0.00 | 59 | 1015.1 |
| 20260510045007 | 48 | 26 | 1.0 | 1.0 | 0.00 | 0.00 | 0.00 | 59 | 1015.0 |
| 20260510044505 | 48 | 31 | 1.0 | 1.0 | 0.00 | 0.00 | 0.00 | 58 | 1014.9 |
| 20260510044002 | 48 | 43 | 3.0 | 5.0 | 0.00 | 0.00 | 0.00 | 58 | 1014.8 |
| 20260510043457 | 48 | 35 | 1.0 | 1.0 | 0.00 | 0.00 | 0.00 | 60 | 1014.4 |
| 20260510042956 | 48 | 47 | 2.0 | 2.0 | 0.00 | 0.00 | 0.00 | 61 | 1014.3 |
| 20260510042452 | 48 | 18 | 1.0 | 1.0 | 0.00 | 0.00 | 0.00 | 61 | 1014.2 |
| 20260510041947 | 49 | 35 | 0.0 | 0.0 | 0.00 | 0.00 | 0.00 | 61 | 1014.0 |
| 20260510041444 | 48 | 28 | 1.0 | 2.0 | 0.00 | 0.00 | 0.00 | 62 | 1014.0 |
| 20260510040942 | 48 | 44 | 1.0 | 1.0 | 0.00 | 0.00 | 0.00 | 63 | 1013.9 |
| 20260510040439 | 48 | 48 | 0.0 | 0.0 | 0.00 | 0.00 | 0.00 | 64 | 1013.8 |
| 20260510035934 | 48 | 355 | 0.0 | 1.0 | 0.00 | 0.00 | 0.00 | 65 | 1013.6 |
| 20260510035430 | 48 | 30 | 0.0 | 1.0 | 0.00 | 0.00 | 0.00 | 68 | 1013.7 |
| 20260510034925 | 48 | 28 | 0.0 | 1.0 | 0.00 | 0.00 | 0.00 | 69 | 1013.5 |
| 20260510034424 | 47 | 43 | 0.0 | 0.0 | 0.00 | 0.00 | 0.00 | 69 | 1013.5 |
| 20260510033920 | 47 | 39 | 0.0 | 0.0 | 0.00 | 0.00 | 0.00 | 71 | 1013.4 |
| 20260510033416 | 46 | 32 | 0.0 | 0.0 | 0.00 | 0.00 | 0.00 | 72 | 1013.4 |
| 20260510032913 | 46 | 34 | 0.0 | 0.0 | 0.00 | 0.00 | 0.00 | 74 | 1013.2 |
| 20260510032410 | 46 | 34 | 0.0 | 0.0 | 0.00 | 0.00 | 0.00 | 74 | 1013.1 |
| 20260510031905 | 46 | 34 | 0.0 | 0.0 | 0.00 | 0.00 | 0.00 | 74 | 1013.1 |
| 20260510031400 | 46 | 34 | 0.0 | 0.0 | 0.00 | 0.00 | 0.00 | 74 | 1013.2 |
| 20260510030855 | 46 | 34 | 0.0 | 0.0 | 0.00 | 0.00 | 0.00 | 73 | 1013.1 |
| 20260510030352 | 46 | 34 | 0.0 | 0.0 | 0.00 | 0.00 | 0.00 | 73 | 1012.9 |
| 20260510025849 | 47 | 33 | 0.0 | 0.0 | 0.00 | 0.00 | 0.00 | 72 | 1013.0 |
| 20260510025347 | 47 | 34 | 0.0 | 0.0 | 0.00 | 0.00 | 0.00 | 71 | 1012.8 |
| 20260510024843 | 47 | 34 | 0.0 | 0.0 | 0.00 | 0.00 | 0.00 | 71 | 1012.8 |
| 20260510024340 | 47 | 34 | 0.0 | 0.0 | 0.00 | 0.00 | 0.00 | 70 | 1012.8 |
| 20260510023836 | 48 | 34 | 0.0 | 0.0 | 0.00 | 0.00 | 0.00 | 69 | 1012.7 |
| 20260510023333 | 48 | 34 | 0.0 | 0.0 | 0.00 | 0.00 | 0.00 | 68 | 1012.5 |
| 20260510022830 | 49 | 34 | 0.0 | 0.0 | 0.00 | 0.00 | 0.00 | 66 | 1012.3 |
| 20260510022329 | 49 | 34 | 0.0 | 0.0 | 0.00 | 0.00 | 0.00 | 65 | 1012.3 |
| 20260510021829 | 50 | 34 | 0.0 | 0.0 | 0.00 | 0.00 | 0.00 | 63 | 1012.2 |
| 20260510021327 | 51 | 34 | 0.0 | 0.0 | 0.00 | 0.00 | 0.00 | 62 | 1012.0 |
| 20260510020822 | 51 | 34 | 0.0 | 0.0 | 0.00 | 0.00 | 0.00 | 61 | 1012.2 |
| 20260510020317 | 52 | 32 | 0.0 | 0.0 | 0.00 | 0.00 | 0.00 | 60 | 1012.1 |
| 20260510015814 | 52 | 32 | 0.0 | 0.0 | 0.00 | 0.00 | 0.00 | 59 | 1011.8 |
| 20260510015310 | 53 | 32 | 0.0 | 0.0 | 0.00 | 0.00 | 0.00 | 58 | 1011.6 |
| 20260510014805 | 53 | 25 | 0.0 | 1.0 | 0.00 | 0.00 | 0.00 | 57 | 1011.7 |
| 20260510014302 | 53 | 34 | 0.0 | 0.0 | 0.00 | 0.00 | 0.00 | 57 | 1011.4 |
| 20260510013758 | 54 | 32 | 0.0 | 1.0 | 0.00 | 0.00 | 0.00 | 56 | 1011.4 |
| 20260510013254 | 54 | 31 | 0.0 | 0.0 | 0.00 | 0.00 | 0.00 | 56 | 1011.3 |
| 20260510012749 | 55 | 26 | 0.0 | 0.0 | 0.00 | 0.00 | 0.00 | 55 | 1011.3 |
| 20260510012244 | 55 | 29 | 0.0 | 0.0 | 0.00 | 0.00 | 0.00 | 54 | 1011.1 |
| 20260510011743 | 55 | 330 | 2.0 | 2.0 | 0.00 | 0.00 | 0.00 | 54 | 1011.0 |
| 20260510011239 | 55 | 9 | 1.0 | 1.0 | 0.00 | 0.00 | 0.00 | 54 | 1010.7 |
| 20260510010737 | 56 | 351 | 1.0 | 2.0 | 0.00 | 0.00 | 0.00 | 53 | 1010.7 |
| 20260510010233 | 56 | 14 | 1.0 | 1.0 | 0.00 | 0.00 | 0.00 | 53 | 1010.7 |
| 20260510005730 | 56 | 16 | 0.0 | 1.0 | 0.00 | 0.00 | 0.00 | 52 | 1010.6 |
| 20260510005226 | 57 | 2 | 1.0 | 2.0 | 0.00 | 0.00 | 0.00 | 51 | 1010.5 |
| 20260510004724 | 57 | 323 | 2.0 | 2.0 | 0.00 | 0.00 | 0.00 | 51 | 1010.7 |
| 20260510004222 | 57 | 312 | 2.0 | 3.0 | 0.00 | 0.00 | 0.00 | 50 | 1010.5 |
| 20260510003719 | 57 | 325 | 2.0 | 3.0 | 0.00 | 0.00 | 0.00 | 50 | 1010.4 |
| 20260510003215 | 58 | 253 | 3.0 | 5.0 | 0.00 | 0.00 | 0.00 | 49 | 1010.3 |
| 20260510002714 | 58 | 317 | 2.0 | 2.0 | 0.00 | 0.00 | 0.00 | 49 | 1010.2 |
| 20260510002212 | 59 | 344 | 1.0 | 2.0 | 0.00 | 0.00 | 0.00 | 48 | 1010.1 |
| 20260510001708 | 59 | 300 | 2.0 | 2.0 | 0.00 | 0.00 | 0.00 | 48 | 1010.1 |
| 20260510001207 | 59 | 306 | 3.0 | 3.0 | 0.00 | 0.00 | 0.00 | 48 | 1010.0 |
| 20260510000702 | 59 | 298 | 3.0 | 5.0 | 0.00 | 0.00 | 0.00 | 48 | 1010.0 |
| 20260510000200 | 59 | 22 | 2.0 | 3.0 | 0.00 | 0.00 | 0.00 | 49 | 1009.7 |
| 20260509235656 | 60 | 313 | 5.0 | 8.0 | 0.00 | 0.00 | 0.00 | 49 | 1009.6 |
| 20260509235152 | 60 | 358 | 2.0 | 2.0 | 0.00 | 0.00 | 0.00 | 50 | 1009.6 |
| 20260509234649 | 60 | 2 | 2.0 | 2.0 | 0.00 | 0.00 | 0.00 | 48 | 1009.7 |
| 20260509234146 | 60 | 346 | 1.0 | 1.0 | 0.00 | 0.00 | 0.00 | 49 | 1009.5 |
| 20260509233644 | 60 | 334 | 3.0 | 5.0 | 0.00 | 0.00 | 0.00 | 48 | 1009.6 |
| 20260509233141 | 60 | 318 | 2.0 | 2.0 | 0.00 | 0.00 | 0.00 | 47 | 1009.4 |
| 20260509232637 | 60 | 275 | 2.0 | 2.0 | 0.00 | 0.00 | 0.00 | 47 | 1009.2 |
| 20260509232134 | 61 | 286 | 3.0 | 3.0 | 0.00 | 0.00 | 0.00 | 46 | 1009.0 |
| 20260509231631 | 61 | 245 | 4.0 | 5.0 | 0.00 | 0.00 | 0.00 | 45 | 1009.0 |
| 20260509231128 | 62 | 59 | 4.0 | 6.0 | 0.00 | 0.00 | 0.00 | 44 | 1009.0 |
| 20260509230625 | 62 | 314 | 2.0 | 2.0 | 0.00 | 0.00 | 0.00 | 43 | 1009.0 |
| 20260509230122 | 62 | 314 | 2.0 | 2.0 | 0.00 | 0.00 | 0.00 | 42 | 1008.9 |
| 20260509225618 | 62 | 271 | 5.0 | 7.0 | 0.00 | 0.00 | 0.00 | 40 | 1008.6 |
| 20260509225113 | 62 | 293 | 4.0 | 5.0 | 0.00 | 0.00 | 0.00 | 39 | 1008.6 |
| 20260509224609 | 62 | 330 | 3.0 | 3.0 | 0.00 | 0.00 | 0.00 | 37 | 1008.5 |
| 20260509224106 | 62 | 15 | 3.0 | 3.0 | 0.00 | 0.00 | 0.00 | 37 | 1008.6 |
| 20260509223603 | 62 | 282 | 4.0 | 5.0 | 0.00 | 0.00 | 0.00 | 36 | 1008.5 |
| 20260509223101 | 63 | 323 | 3.0 | 3.0 | 0.00 | 0.00 | 0.00 | 36 | 1008.5 |
| 20260509222556 | 63 | 345 | 3.0 | 3.0 | 0.00 | 0.00 | 0.00 | 36 | 1008.3 |
| 20260509222053 | 64 | 262 | 5.0 | 8.0 | 0.00 | 0.00 | 0.00 | 38 | 1008.1 |
| 20260509221548 | 64 | 336 | 2.0 | 3.0 | 0.00 | 0.00 | 0.00 | 40 | 1008.1 |